Location: Baia Mare
(47.6567°N, 23.5850°E)
Time: 17:41:22
(UTC+03:00)

ISS - Pass Details

Date: 05 October 2018
Orbit: 403 x 408 km, 51.6° (Epoch: 20 October)

Event Time Altitude Azimuth Distance (km) Brightness Sun altitude
Rises 19:49:03 0° 289° (WNW) 2,340 1.8 -9.5°
Reaches altitude 10° 19:51:12 10° 296° (WNW) 1,477 0.3 -9.9°
Maximum altitude 19:54:24 46° 11° (N) 561 -3.2 -10.4°
Enters shadow 19:56:44 17° 81° (E) 1,142 -2.2 -10.8°
